Time,TemperatureF,DewpointF,PressureIn,WindDirection,WindDirectionDegrees,WindSpeedMPH,WindSpeedGustMPH,Humidity,HourlyPrecipIn,Conditions,Clouds,dailyrainin,SoftwareType,DateUTC
2013-03-08 00:01:00,46.9,46.0,29.61,SW,225,3.5,4.2,96,0.00,,,0.00,Rainwise IP-100,2013-03-08 08:01:00,
2013-03-08 00:06:00,46.9,46.0,29.61,SW,225,2.8,4.4,96,0.00,,,0.00,Rainwise IP-100,2013-03-08 08:06:00,
2013-03-08 00:11:00,46.9,46.0,29.61,SSW,202,2.6,6.1,96,0.00,,,0.00,Rainwise IP-100,2013-03-08 08:11:00,
2013-03-08 00:16:00,46.9,46.0,29.61,SW,225,1.9,4.9,96,0.00,,,0.00,Rainwise IP-100,2013-03-08 08:16:00,
2013-03-08 00:21:00,46.8,46.0,29.61,SW,225,0.0,3.5,96,0.00,,,0.00,Rainwise IP-100,2013-03-08 08:21:00,
2013-03-08 00:26:00,46.8,46.0,29.61,WSW,247,2.1,3.5,96,0.00,,,0.00,Rainwise IP-100,2013-03-08 08:26:00,
2013-03-08 00:31:00,46.7,46.0,29.61,WSW,247,4.0,4.0,96,0.00,,,0.00,Rainwise IP-100,2013-03-08 08:31:00,
2013-03-08 00:36:00,46.8,46.0,29.61,SSW,202,2.1,4.2,96,0.00,,,0.00,Rainwise IP-100,2013-03-08 08:36:00,
2013-03-08 00:41:00,46.9,46.0,29.61,SW,225,3.3,3.5,96,0.00,,,0.00,Rainwise IP-100,2013-03-08 08:41:00,
2013-03-08 00:46:00,46.9,46.0,29.61,SW,225,2.1,3.7,96,0.00,,,0.00,Rainwise IP-100,2013-03-08 08:46:00,
2013-03-08 00:51:00,46.8,46.0,29.61,WSW,247,2.6,4.2,96,0.00,,,0.00,Rainwise IP-100,2013-03-08 08:51:00,
2013-03-08 00:56:00,46.7,46.0,29.61,WSW,247,4.2,4.9,96,0.00,,,0.00,Rainwise IP-100,2013-03-08 08:56:00,
2013-03-08 01:01:00,46.7,46.0,29.61,SW,225,3.3,4.2,96,0.00,,,0.00,Rainwise IP-100,2013-03-08 09:01:00,
2013-03-08 01:06:00,46.7,46.0,29.61,SSW,202,2.3,4.0,96,0.00,,,0.00,Rainwise IP-100,2013-03-08 09:06:00,
2013-03-08 01:11:00,46.7,46.0,29.61,SSW,202,0.0,4.0,96,0.00,,,0.00,Rainwise IP-100,2013-03-08 09:11:00,
2013-03-08 01:16:00,46.7,46.0,29.61,SSW,202,1.2,2.6,96,0.00,,,0.00,Rainwise IP-100,2013-03-08 09:16:00,
2013-03-08 01:21:00,46.7,46.0,29.61,SSW,202,2.1,2.8,96,0.00,,,0.00,Rainwise IP-100,2013-03-08 09:21:00,
2013-03-08 01:26:00,46.7,46.0,29.61,South,180,1.4,2.6,96,0.00,,,0.00,Rainwise IP-100,2013-03-08 09:26:00,
2013-03-08 01:31:00,46.7,46.0,29.60,South,180,1.4,1.9,96,0.00,,,0.00,Rainwise IP-100,2013-03-08 09:31:00,
2013-03-08 01:36:00,46.6,46.0,29.60,South,180,1.2,1.6,96,0.00,,,0.00,Rainwise IP-100,2013-03-08 09:36:00,
2013-03-08 01:41:00,46.6,46.0,29.61,SSW,202,1.2,2.1,96,0.00,,,0.00,Rainwise IP-100,2013-03-08 09:41:00,
2013-03-08 01:46:00,46.5,46.0,29.61,SSW,202,0.0,2.1,96,0.00,,,0.00,Rainwise IP-100,2013-03-08 09:46:00,
2013-03-08 01:51:00,46.4,45.0,29.60,SSW,202,0.0,2.1,96,0.00,,,0.00,Rainwise IP-100,2013-03-08 09:51:00,
2013-03-08 01:56:00,46.3,45.0,29.60,SSW,202,0.0,0.0,96,0.00,,,0.00,Rainwise IP-100,2013-03-08 09:56:00,
2013-03-08 02:01:00,46.3,45.0,29.60,SSW,202,0.0,1.6,96,0.00,,,0.00,Rainwise IP-100,2013-03-08 10:01:00,
2013-03-08 02:06:00,46.3,45.0,29.60,SSW,202,0.0,1.2,96,0.00,,,0.00,Rainwise IP-100,2013-03-08 10:06:00,
2013-03-08 02:11:00,46.2,45.0,29.59,SSW,202,1.4,2.1,96,0.00,,,0.00,Rainwise IP-100,2013-03-08 10:11:00,
2013-03-08 02:16:00,46.0,45.0,29.59,SSW,202,0.0,2.1,96,0.00,,,0.00,Rainwise IP-100,2013-03-08 10:16:00,
2013-03-08 02:21:00,45.7,45.0,29.60,SSW,202,1.2,2.1,96,0.00,,,0.00,Rainwise IP-100,2013-03-08 10:21:00,
2013-03-08 02:26:00,45.6,44.0,29.60,SSW,202,1.2,2.1,95,0.00,,,0.00,Rainwise IP-100,2013-03-08 10:26:00,
2013-03-08 02:31:00,45.4,44.0,29.59,SSW,202,1.4,2.1,95,0.00,,,0.00,Rainwise IP-100,2013-03-08 10:31:00,
2013-03-08 02:36:00,45.3,44.0,29.59,SSW,202,0.0,2.1,95,0.00,,,0.00,Rainwise IP-100,2013-03-08 10:36:00,
2013-03-08 02:41:00,45.1,44.0,29.59,SSW,202,0.0,1.9,95,0.00,,,0.00,Rainwise IP-100,2013-03-08 10:41:00,
2013-03-08 02:46:00,45.0,44.0,29.59,SSW,202,1.2,0.0,95,0.00,,,0.00,Rainwise IP-100,2013-03-08 10:46:00,
2013-03-08 02:51:00,44.8,44.0,29.59,SSW,202,1.4,1.9,95,0.00,,,0.00,Rainwise IP-100,2013-03-08 10:51:00,
2013-03-08 02:56:00,44.6,44.0,29.59,SSW,202,0.0,1.6,95,0.00,,,0.00,Rainwise IP-100,2013-03-08 10:56:00,
2013-03-08 03:01:00,44.5,44.0,29.58,SSW,202,0.0,0.0,95,0.00,,,0.00,Rainwise IP-100,2013-03-08 11:01:00,
2013-03-08 03:06:00,44.3,43.0,29.58,SSW,202,1.2,1.6,95,0.00,,,0.00,Rainwise IP-100,2013-03-08 11:06:00,
2013-03-08 03:11:00,44.3,43.0,29.58,SSW,202,0.0,1.6,95,0.00,,,0.00,Rainwise IP-100,2013-03-08 11:11:00,
2013-03-08 03:16:00,44.1,43.0,29.58,SSW,202,0.0,1.9,95,0.00,,,0.00,Rainwise IP-100,2013-03-08 11:16:00,
2013-03-08 03:21:00,43.8,43.0,29.58,SSW,202,0.0,0.0,95,0.00,,,0.00,Rainwise IP-100,2013-03-08 11:21:00,
2013-03-08 03:26:00,43.9,43.0,29.58,SSW,202,0.0,0.0,95,0.00,,,0.00,Rainwise IP-100,2013-03-08 11:26:00,
2013-03-08 03:31:00,44.0,43.0,29.58,SSW,202,1.6,2.1,96,0.00,,,0.00,Rainwise IP-100,2013-03-08 11:31:00,
2013-03-08 03:36:00,43.9,43.0,29.58,SSW,202,1.6,2.3,96,0.06,,,0.01,Rainwise IP-100,2013-03-08 11:36:00,
2013-03-08 03:41:00,43.7,43.0,29.58,SSW,202,0.0,2.1,96,0.06,,,0.01,Rainwise IP-100,2013-03-08 11:41:00,
2013-03-08 03:46:00,43.7,43.0,29.58,SSW,202,0.0,1.6,96,0.00,,,0.01,Rainwise IP-100,2013-03-08 11:46:00,
2013-03-08 03:51:00,43.8,43.0,29.58,SSW,202,0.0,1.4,96,0.00,,,0.01,Rainwise IP-100,2013-03-08 11:51:00,
2013-03-08 03:56:00,43.9,43.0,29.58,SSW,202,1.6,0.0,96,0.00,,,0.01,Rainwise IP-100,2013-03-08 11:56:00,
2013-03-08 04:01:00,44.0,43.0,29.57,SSW,202,0.0,1.9,96,0.00,,,0.01,Rainwise IP-100,2013-03-08 12:01:00,
2013-03-08 04:06:00,44.2,43.0,29.58,SSW,202,0.0,0.0,96,0.00,,,0.01,Rainwise IP-100,2013-03-08 12:06:00,
2013-03-08 04:11:00,44.1,43.0,29.58,SSW,202,1.4,1.4,95,0.00,,,0.01,Rainwise IP-100,2013-03-08 12:11:00,
2013-03-08 04:16:00,43.9,43.0,29.58,SSW,202,0.0,1.9,95,0.00,,,0.01,Rainwise IP-100,2013-03-08 12:16:00,
2013-03-08 04:21:00,43.7,43.0,29.58,SSW,202,1.4,1.4,96,0.00,,,0.01,Rainwise IP-100,2013-03-08 12:21:00,
2013-03-08 04:26:00,43.6,43.0,29.58,SSW,202,1.6,1.9,96,0.00,,,0.01,Rainwise IP-100,2013-03-08 12:26:00,
2013-03-08 04:31:00,43.5,43.0,29.58,SSW,202,1.2,1.6,96,0.00,,,0.01,Rainwise IP-100,2013-03-08 12:31:00,
2013-03-08 04:36:00,43.5,43.0,29.58,SW,225,1.4,3.0,95,0.00,,,0.01,Rainwise IP-100,2013-03-08 12:36:00,
2013-03-08 04:41:00,43.5,43.0,29.58,SSW,202,0.0,2.3,95,0.00,,,0.01,Rainwise IP-100,2013-03-08 12:41:00,
2013-03-08 04:46:00,43.6,43.0,29.58,SSW,202,0.0,2.6,95,0.00,,,0.01,Rainwise IP-100,2013-03-08 12:46:00,
2013-03-08 04:51:00,43.8,43.0,29.58,SSW,202,1.2,2.8,96,0.00,,,0.01,Rainwise IP-100,2013-03-08 12:51:00,
2013-03-08 04:56:00,44.1,43.0,29.58,SSW,202,1.2,2.8,96,0.00,,,0.01,Rainwise IP-100,2013-03-08 12:56:00,
2013-03-08 05:01:00,44.4,43.0,29.58,SSW,202,0.0,2.6,96,0.00,,,0.01,Rainwise IP-100,2013-03-08 13:01:00,
2013-03-08 05:06:00,44.4,43.0,29.58,SSW,202,0.0,2.3,96,0.00,,,0.01,Rainwise IP-100,2013-03-08 13:06:00,
2013-03-08 05:11:00,44.5,44.0,29.58,SW,225,3.0,3.0,96,0.00,,,0.01,Rainwise IP-100,2013-03-08 13:11:00,
2013-03-08 05:16:00,44.4,43.0,29.59,SW,225,1.6,3.3,96,0.00,,,0.01,Rainwise IP-100,2013-03-08 13:16:00,
2013-03-08 05:21:00,44.3,43.0,29.58,SSW,202,1.2,3.7,95,0.00,,,0.01,Rainwise IP-100,2013-03-08 13:21:00,
2013-03-08 05:26:00,44.4,43.0,29.59,SSW,202,4.0,4.7,95,0.00,,,0.01,Rainwise IP-100,2013-03-08 13:26:00,
2013-03-08 05:31:00,44.6,43.0,29.59,SSW,202,1.4,4.2,94,0.00,,,0.01,Rainwise IP-100,2013-03-08 13:31:00,
2013-03-08 05:36:00,44.7,43.0,29.59,SSW,202,2.3,4.2,94,0.00,,,0.01,Rainwise IP-100,2013-03-08 13:36:00,
2013-03-08 05:41:00,44.8,43.0,29.59,South,180,0.0,4.2,93,0.00,,,0.01,Rainwise IP-100,2013-03-08 13:41:00,
2013-03-08 05:46:00,44.9,43.0,29.59,South,180,2.8,3.7,93,0.00,,,0.01,Rainwise IP-100,2013-03-08 13:46:00,
2013-03-08 05:51:00,45.0,43.0,29.59,SSW,202,3.7,4.4,92,0.00,,,0.01,Rainwise IP-100,2013-03-08 13:51:00,
2013-03-08 05:56:00,45.0,42.0,29.59,SSW,202,2.6,5.6,91,0.00,,,0.01,Rainwise IP-100,2013-03-08 13:56:00,
2013-03-08 06:01:00,45.0,42.0,29.60,SSW,202,3.0,5.6,91,0.00,,,0.01,Rainwise IP-100,2013-03-08 14:01:00,
2013-03-08 06:06:00,45.1,42.0,29.60,SSW,202,3.5,4.9,90,0.00,,,0.01,Rainwise IP-100,2013-03-08 14:06:00,
2013-03-08 06:11:00,45.2,42.0,29.59,SSW,202,1.9,4.0,90,0.00,,,0.01,Rainwise IP-100,2013-03-08 14:11:00,
2013-03-08 06:16:00,45.1,42.0,29.59,SW,225,1.9,4.4,90,0.00,,,0.01,Rainwise IP-100,2013-03-08 14:16:00,
2013-03-08 06:21:00,45.1,42.0,29.60,SSW,202,2.8,4.0,90,0.00,,,0.01,Rainwise IP-100,2013-03-08 14:21:00,
2013-03-08 06:26:00,45.0,42.0,29.60,SSW,202,2.8,4.2,91,0.00,,,0.01,Rainwise IP-100,2013-03-08 14:26:00,
2013-03-08 06:31:00,45.0,42.0,29.60,SW,225,0.0,4.9,91,0.00,,,0.01,Rainwise IP-100,2013-03-08 14:31:00,
2013-03-08 06:36:00,45.0,42.0,29.60,SW,225,1.6,2.1,91,0.00,,,0.01,Rainwise IP-100,2013-03-08 14:36:00,
2013-03-08 06:41:00,45.0,42.0,29.61,SSW,202,2.8,3.3,91,0.00,,,0.01,Rainwise IP-100,2013-03-08 14:41:00,
2013-03-08 06:46:00,45.0,43.0,29.60,WSW,247,0.0,3.5,92,0.00,,,0.01,Rainwise IP-100,2013-03-08 14:46:00,
2013-03-08 06:51:00,45.1,43.0,29.60,South,180,1.2,3.5,92,0.00,,,0.01,Rainwise IP-100,2013-03-08 14:51:00,
2013-03-08 06:56:00,45.2,43.0,29.61,SSW,202,1.2,3.5,92,0.00,,,0.01,Rainwise IP-100,2013-03-08 14:56:00,
2013-03-08 07:01:00,45.3,43.0,29.61,SSW,202,1.4,4.2,92,0.00,,,0.01,Rainwise IP-100,2013-03-08 15:01:00,
2013-03-08 07:06:00,45.5,44.0,29.61,SW,225,4.4,4.4,92,0.00,,,0.01,Rainwise IP-100,2013-03-08 15:06:00,
2013-03-08 07:11:00,45.6,44.0,29.61,SW,225,3.3,4.4,92,0.00,,,0.01,Rainwise IP-100,2013-03-08 15:11:00,
2013-03-08 07:16:00,45.9,43.0,29.61,SSW,202,2.6,4.0,91,0.00,,,0.01,Rainwise IP-100,2013-03-08 15:16:00,
2013-03-08 07:21:00,46.1,43.0,29.61,SSW,202,0.0,4.2,91,0.00,,,0.01,Rainwise IP-100,2013-03-08 15:21:00,
2013-03-08 07:26:00,46.3,43.0,29.61,SSW,202,1.2,4.4,91,0.00,,,0.01,Rainwise IP-100,2013-03-08 15:26:00,
2013-03-08 07:31:00,46.7,44.0,29.62,SW,225,2.8,5.4,90,0.00,,,0.01,Rainwise IP-100,2013-03-08 15:31:00,
2013-03-08 07:36:00,47.2,43.0,29.61,SW,225,0.0,4.9,89,0.00,,,0.01,Rainwise IP-100,2013-03-08 15:36:00,
2013-03-08 07:41:00,47.5,44.0,29.61,SSW,202,2.1,7.9,88,0.00,,,0.01,Rainwise IP-100,2013-03-08 15:41:00,
2013-03-08 07:46:00,47.8,45.0,29.62,SSW,202,3.3,6.1,88,0.00,,,0.01,Rainwise IP-100,2013-03-08 15:46:00,
2013-03-08 07:51:00,48.0,45.0,29.62,SW,225,4.2,6.1,87,0.00,,,0.01,Rainwise IP-100,2013-03-08 15:51:00,
2013-03-08 07:56:00,48.3,44.0,29.62,SW,225,3.5,6.3,86,0.00,,,0.01,Rainwise IP-100,2013-03-08 15:56:00,
2013-03-08 08:01:00,48.5,45.0,29.62,SW,225,4.4,11.4,85,0.00,,,0.01,Rainwise IP-100,2013-03-08 16:01:00,
2013-03-08 08:06:00,48.5,44.0,29.62,SSW,202,5.6,9.3,84,0.00,,,0.01,Rainwise IP-100,2013-03-08 16:06:00,
2013-03-08 08:11:00,48.5,44.0,29.63,SW,225,5.6,10.0,84,0.00,,,0.01,Rainwise IP-100,2013-03-08 16:11:00,
2013-03-08 08:16:00,48.6,45.0,29.63,SW,225,2.8,9.3,85,0.00,,,0.01,Rainwise IP-100,2013-03-08 16:16:00,
2013-03-08 08:21:00,48.8,44.0,29.63,SW,225,4.7,9.6,84,0.00,,,0.01,Rainwise IP-100,2013-03-08 16:21:00,
2013-03-08 08:26:00,49.0,44.0,29.64,WSW,247,1.9,9.8,83,0.00,,,0.01,Rainwise IP-100,2013-03-08 16:26:00,
2013-03-08 08:31:00,49.2,44.0,29.63,SW,225,7.9,11.0,83,0.00,,,0.01,Rainwise IP-100,2013-03-08 16:31:00,
2013-03-08 08:36:00,49.4,44.0,29.64,SSW,202,4.7,10.0,83,0.00,,,0.01,Rainwise IP-100,2013-03-08 16:36:00,
2013-03-08 08:41:00,49.4,44.0,29.64,WSW,247,4.2,11.4,83,0.00,,,0.01,Rainwise IP-100,2013-03-08 16:41:00,
2013-03-08 08:46:00,49.3,44.0,29.64,WSW,247,4.2,9.8,83,0.00,,,0.01,Rainwise IP-100,2013-03-08 16:46:00,
2013-03-08 08:51:00,49.3,44.0,29.64,SW,225,3.7,8.4,83,0.00,,,0.01,Rainwise IP-100,2013-03-08 16:51:00,
2013-03-08 08:56:00,49.5,45.0,29.64,West,270,5.6,10.7,82,0.00,,,0.01,Rainwise IP-100,2013-03-08 16:56:00,
2013-03-08 09:01:00,49.5,45.0,29.64,WSW,247,8.9,10.0,82,0.00,,,0.01,Rainwise IP-100,2013-03-08 17:01:00,
2013-03-08 09:06:00,49.3,44.0,29.64,SSW,202,6.1,9.8,82,0.00,,,0.01,Rainwise IP-100,2013-03-08 17:06:00,
2013-03-08 09:11:00,49.1,44.0,29.65,SSW,202,0.0,7.5,83,0.00,,,0.01,Rainwise IP-100,2013-03-08 17:11:00,
2013-03-08 09:16:00,49.2,44.0,29.65,SSW,202,7.0,7.7,83,0.00,,,0.01,Rainwise IP-100,2013-03-08 17:16:00,
2013-03-08 09:21:00,49.2,44.0,29.64,SW,225,2.8,12.4,84,0.00,,,0.01,Rainwise IP-100,2013-03-08 17:21:00,
2013-03-08 09:26:00,49.2,44.0,29.65,SW,225,3.5,10.3,84,0.00,,,0.01,Rainwise IP-100,2013-03-08 17:26:00,
2013-03-08 09:31:00,49.5,46.0,29.65,SSW,202,2.8,12.4,85,0.00,,,0.01,Rainwise IP-100,2013-03-08 17:31:00,
2013-03-08 09:36:00,49.6,46.0,29.65,SW,225,6.1,11.4,85,0.00,,,0.01,Rainwise IP-100,2013-03-08 17:36:00,
2013-03-08 09:41:00,49.8,45.0,29.65,SW,225,4.0,8.4,84,0.00,,,0.01,Rainwise IP-100,2013-03-08 17:41:00,
2013-03-08 09:46:00,49.9,45.0,29.65,WSW,247,3.0,8.6,83,0.00,,,0.01,Rainwise IP-100,2013-03-08 17:46:00,
2013-03-08 09:51:00,49.9,45.0,29.65,WSW,247,5.1,11.7,83,0.00,,,0.01,Rainwise IP-100,2013-03-08 17:51:00,
2013-03-08 09:56:00,49.9,45.0,29.65,WSW,247,8.6,11.9,82,0.00,,,0.01,Rainwise IP-100,2013-03-08 17:56:00,
2013-03-08 10:01:00,49.7,45.0,29.65,WSW,247,4.0,10.0,83,0.00,,,0.01,Rainwise IP-100,2013-03-08 18:01:00,
2013-03-08 10:06:00,49.5,45.0,29.65,WNW,292,5.1,8.6,82,0.00,,,0.01,Rainwise IP-100,2013-03-08 18:06:00,
2013-03-08 10:11:00,49.5,45.0,29.65,WNW,292,8.4,11.2,83,0.00,,,0.01,Rainwise IP-100,2013-03-08 18:11:00,
2013-03-08 10:16:00,49.5,45.0,29.65,SSW,202,8.4,11.4,83,0.00,,,0.01,Rainwise IP-100,2013-03-08 18:16:00,
2013-03-08 10:21:00,49.8,45.0,29.65,SSW,202,4.0,11.0,82,0.00,,,0.01,Rainwise IP-100,2013-03-08 18:21:00,
2013-03-08 10:26:00,50.3,45.0,29.65,WSW,247,7.0,12.6,81,0.00,,,0.01,Rainwise IP-100,2013-03-08 18:26:00,
2013-03-08 10:31:00,51.0,45.0,29.65,WSW,247,10.3,10.7,80,0.00,,,0.01,Rainwise IP-100,2013-03-08 18:31:00,
2013-03-08 10:36:00,51.5,46.0,29.65,WNW,292,4.7,11.4,79,0.00,,,0.01,Rainwise IP-100,2013-03-08 18:36:00,
2013-03-08 10:41:00,51.8,45.0,29.65,West,270,5.4,12.4,78,0.00,,,0.01,Rainwise IP-100,2013-03-08 18:41:00,
2013-03-08 10:46:00,52.0,45.0,29.65,SW,225,5.8,12.1,77,0.00,,,0.01,Rainwise IP-100,2013-03-08 18:46:00,
2013-03-08 10:51:00,52.2,45.0,29.65,SW,225,9.8,15.6,77,0.00,,,0.01,Rainwise IP-100,2013-03-08 18:51:00,
2013-03-08 10:56:00,51.8,45.0,29.66,SSW,202,6.1,13.1,77,0.00,,,0.01,Rainwise IP-100,2013-03-08 18:56:00,
2013-03-08 11:01:00,51.6,45.0,29.66,West,270,5.1,13.1,77,0.00,,,0.01,Rainwise IP-100,2013-03-08 19:01:00,
2013-03-08 11:06:00,51.5,45.0,29.66,WSW,247,7.0,15.4,78,0.00,,,0.01,Rainwise IP-100,2013-03-08 19:06:00,
2013-03-08 11:11:00,51.4,45.0,29.65,SW,225,3.7,12.8,79,0.00,,,0.01,Rainwise IP-100,2013-03-08 19:11:00,
2013-03-08 11:16:00,51.5,46.0,29.66,SSW,202,4.4,15.2,79,0.00,,,0.01,Rainwise IP-100,2013-03-08 19:16:00,
2013-03-08 11:21:00,51.6,45.0,29.66,SW,225,7.5,17.3,78,0.00,,,0.01,Rainwise IP-100,2013-03-08 19:21:00,
2013-03-08 11:26:00,51.7,45.0,29.66,West,270,3.0,15.9,78,0.00,,,0.01,Rainwise IP-100,2013-03-08 19:26:00,
2013-03-08 11:31:00,51.8,45.0,29.66,SW,225,4.9,15.2,78,0.00,,,0.01,Rainwise IP-100,2013-03-08 19:31:00,
2013-03-08 11:36:00,52.0,45.0,29.66,West,270,3.5,17.7,78,0.00,,,0.01,Rainwise IP-100,2013-03-08 19:36:00,
2013-03-08 11:41:00,52.0,45.0,29.66,WSW,247,6.3,17.3,78,0.00,,,0.01,Rainwise IP-100,2013-03-08 19:41:00,
2013-03-08 11:46:00,51.7,45.0,29.65,SSW,202,3.3,18.7,77,0.00,,,0.01,Rainwise IP-100,2013-03-08 19:46:00,
2013-03-08 11:51:00,51.6,45.0,29.66,SW,225,10.3,20.5,77,0.00,,,0.01,Rainwise IP-100,2013-03-08 19:51:00,
2013-03-08 11:56:00,51.9,45.0,29.66,WSW,247,10.5,17.0,77,0.00,,,0.01,Rainwise IP-100,2013-03-08 19:56:00,
2013-03-08 12:01:00,52.1,45.0,29.65,WSW,247,8.4,16.3,77,0.00,,,0.01,Rainwise IP-100,2013-03-08 20:01:00,
2013-03-08 12:06:00,52.2,45.0,29.65,West,270,11.0,16.1,77,0.00,,,0.01,Rainwise IP-100,2013-03-08 20:06:00,
2013-03-08 12:11:00,52.3,45.0,29.66,SSW,202,5.8,16.3,77,0.00,,,0.01,Rainwise IP-100,2013-03-08 20:11:00,
2013-03-08 12:16:00,52.4,45.0,29.66,SW,225,5.4,14.2,77,0.00,,,0.01,Rainwise IP-100,2013-03-08 20:16:00,
2013-03-08 12:21:00,52.8,45.0,29.66,WSW,247,7.9,13.1,76,0.00,,,0.01,Rainwise IP-100,2013-03-08 20:21:00,
2013-03-08 12:26:00,53.0,45.0,29.66,SW,225,14.7,15.6,76,0.00,,,0.01,Rainwise IP-100,2013-03-08 20:26:00,
2013-03-08 12:31:00,52.7,45.0,29.65,West,270,12.6,17.5,76,0.00,,,0.01,Rainwise IP-100,2013-03-08 20:31:00,
2013-03-08 12:36:00,52.6,45.0,29.66,WSW,247,6.3,15.4,76,0.00,,,0.01,Rainwise IP-100,2013-03-08 20:36:00,
2013-03-08 12:41:00,52.8,45.0,29.65,SSW,202,14.5,18.9,76,0.00,,,0.01,Rainwise IP-100,2013-03-08 20:41:00,
2013-03-08 12:46:00,52.5,45.0,29.65,WSW,247,3.7,19.8,76,0.00,,,0.01,Rainwise IP-100,2013-03-08 20:46:00,
2013-03-08 12:51:00,52.1,45.0,29.65,SW,225,16.6,22.2,77,0.00,,,0.01,Rainwise IP-100,2013-03-08 20:51:00,
2013-03-08 12:56:00,51.9,45.0,29.65,West,270,6.5,18.9,78,0.00,,,0.01,Rainwise IP-100,2013-03-08 20:56:00,
2013-03-08 13:01:00,52.0,45.0,29.65,SSW,202,8.6,24.9,78,0.00,,,0.01,Rainwise IP-100,2013-03-08 21:01:00,
2013-03-08 13:06:00,52.1,45.0,29.65,SW,225,7.5,19.4,78,0.00,,,0.01,Rainwise IP-100,2013-03-08 21:06:00,
2013-03-08 13:11:00,52.2,46.0,29.65,SSW,202,7.0,18.9,79,0.00,,,0.01,Rainwise IP-100,2013-03-08 21:11:00,
2013-03-08 13:16:00,52.1,45.0,29.65,SSW,202,7.9,23.6,78,0.00,,,0.01,Rainwise IP-100,2013-03-08 21:16:00,
2013-03-08 13:21:00,52.2,45.0,29.64,WNW,292,8.6,16.8,78,0.00,,,0.01,Rainwise IP-100,2013-03-08 21:21:00,
2013-03-08 13:26:00,52.5,46.0,29.64,WSW,247,7.2,18.9,78,0.00,,,0.01,Rainwise IP-100,2013-03-08 21:26:00,
2013-03-08 13:31:00,52.6,46.0,29.65,WSW,247,6.3,23.8,77,0.00,,,0.01,Rainwise IP-100,2013-03-08 21:31:00,
2013-03-08 13:36:00,52.4,45.0,29.64,West,270,14.9,20.8,77,0.00,,,0.01,Rainwise IP-100,2013-03-08 21:36:00,
2013-03-08 13:41:00,52.3,45.0,29.64,NNW,337,7.9,17.5,77,0.00,,,0.01,Rainwise IP-100,2013-03-08 21:41:00,
2013-03-08 13:46:00,52.4,45.0,29.64,WSW,247,7.5,19.8,77,0.00,,,0.01,Rainwise IP-100,2013-03-08 21:46:00,
2013-03-08 13:51:00,52.5,46.0,29.64,SW,225,6.8,20.3,77,0.00,,,0.01,Rainwise IP-100,2013-03-08 21:51:00,
2013-03-08 13:56:00,52.5,46.0,29.64,WNW,292,6.8,17.0,77,0.00,,,0.01,Rainwise IP-100,2013-03-08 21:56:00,
2013-03-08 14:01:00,52.3,45.0,29.65,West,270,11.9,19.4,77,0.00,,,0.01,Rainwise IP-100,2013-03-08 22:01:00,
2013-03-08 14:06:00,52.2,45.0,29.65,SW,225,7.2,20.8,77,0.00,,,0.01,Rainwise IP-100,2013-03-08 22:06:00,
2013-03-08 14:11:00,52.1,45.0,29.65,West,270,11.0,20.3,77,0.00,,,0.01,Rainwise IP-100,2013-03-08 22:11:00,
2013-03-08 14:16:00,52.1,45.0,29.65,WSW,247,19.6,19.6,77,0.00,,,0.01,Rainwise IP-100,2013-03-08 22:16:00,
2013-03-08 14:21:00,52.0,45.0,29.65,West,270,11.7,20.3,77,0.00,,,0.01,Rainwise IP-100,2013-03-08 22:21:00,
2013-03-08 14:26:00,52.0,45.0,29.65,WSW,247,14.2,19.4,77,0.00,,,0.01,Rainwise IP-100,2013-03-08 22:26:00,
2013-03-08 14:31:00,51.9,45.0,29.65,West,270,16.1,26.8,77,0.00,,,0.01,Rainwise IP-100,2013-03-08 22:31:00,
2013-03-08 14:36:00,51.5,45.0,29.65,SSW,202,4.4,20.1,77,0.00,,,0.01,Rainwise IP-100,2013-03-08 22:36:00,
2013-03-08 14:41:00,51.5,45.0,29.65,SSW,202,7.9,18.2,78,0.00,,,0.01,Rainwise IP-100,2013-03-08 22:41:00,
2013-03-08 14:46:00,51.9,45.0,29.65,SSW,202,8.2,17.7,78,0.00,,,0.01,Rainwise IP-100,2013-03-08 22:46:00,
2013-03-08 14:51:00,51.7,45.0,29.66,WSW,247,6.1,19.8,77,0.00,,,0.01,Rainwise IP-100,2013-03-08 22:51:00,
2013-03-08 14:56:00,51.5,45.0,29.66,SW,225,8.6,23.3,77,0.00,,,0.01,Rainwise IP-100,2013-03-08 22:56:00,
2013-03-08 15:01:00,51.6,45.0,29.66,WSW,247,9.1,18.2,77,0.00,,,0.01,Rainwise IP-100,2013-03-08 23:01:00,
2013-03-08 15:06:00,51.8,45.0,29.66,SW,225,19.8,21.9,77,0.00,,,0.01,Rainwise IP-100,2013-03-08 23:06:00,
2013-03-08 15:11:00,51.8,45.0,29.65,SSW,202,19.1,24.0,77,0.00,,,0.01,Rainwise IP-100,2013-03-08 23:11:00,
2013-03-08 15:16:00,51.6,45.0,29.67,SW,225,16.6,22.6,77,0.00,,,0.01,Rainwise IP-100,2013-03-08 23:16:00,
2013-03-08 15:21:00,51.5,45.0,29.66,WNW,292,7.2,27.7,77,0.00,,,0.01,Rainwise IP-100,2013-03-08 23:21:00,
2013-03-08 15:26:00,51.3,44.0,29.66,SW,225,15.9,23.3,77,0.00,,,0.01,Rainwise IP-100,2013-03-08 23:26:00,
2013-03-08 15:31:00,51.1,45.0,29.67,SW,225,12.6,19.4,78,0.00,,,0.01,Rainwise IP-100,2013-03-08 23:31:00,
2013-03-08 15:36:00,51.2,45.0,29.67,WSW,247,5.4,21.5,78,0.00,,,0.01,Rainwise IP-100,2013-03-08 23:36:00,
2013-03-08 15:41:00,51.4,45.0,29.67,WSW,247,9.6,18.4,78,0.00,,,0.01,Rainwise IP-100,2013-03-08 23:41:00,
2013-03-08 15:46:00,51.4,45.0,29.67,WSW,247,11.2,21.7,78,0.00,,,0.01,Rainwise IP-100,2013-03-08 23:46:00,
2013-03-08 15:51:00,51.0,45.0,29.67,SSW,202,7.5,23.8,78,0.00,,,0.01,Rainwise IP-100,2013-03-08 23:51:00,
2013-03-08 15:56:00,50.8,45.0,29.67,WSW,247,11.9,22.2,78,0.00,,,0.01,Rainwise IP-100,2013-03-08 23:56:00,
2013-03-08 16:01:00,50.7,44.0,29.67,SSW,202,12.4,17.0,78,0.00,,,0.01,Rainwise IP-100,2013-03-09 00:01:00,
2013-03-08 16:06:00,50.4,44.0,29.68,SSW,202,10.0,25.9,79,0.00,,,0.01,Rainwise IP-100,2013-03-09 00:06:00,
2013-03-08 16:11:00,50.1,43.0,29.67,West,270,17.7,22.2,79,0.00,,,0.01,Rainwise IP-100,2013-03-09 00:11:00,
2013-03-08 16:16:00,50.1,43.0,29.67,WSW,247,9.8,22.4,79,0.00,,,0.01,Rainwise IP-100,2013-03-09 00:16:00,
2013-03-08 16:21:00,50.1,43.0,29.67,WSW,247,16.6,21.9,79,0.00,,,0.01,Rainwise IP-100,2013-03-09 00:21:00,
2013-03-08 16:26:00,49.9,43.0,29.67,West,270,11.4,24.9,79,0.00,,,0.01,Rainwise IP-100,2013-03-09 00:26:00,
2013-03-08 16:31:00,49.8,44.0,29.67,SSW,202,13.1,21.0,80,0.00,,,0.01,Rainwise IP-100,2013-03-09 00:31:00,
2013-03-08 16:36:00,49.8,44.0,29.68,SSW,202,12.8,17.3,80,0.00,,,0.01,Rainwise IP-100,2013-03-09 00:36:00,
2013-03-08 16:41:00,49.6,44.0,29.67,SW,225,11.9,20.3,80,0.00,,,0.01,Rainwise IP-100,2013-03-09 00:41:00,
2013-03-08 16:46:00,49.4,43.0,29.67,WSW,247,6.5,17.5,81,0.00,,,0.01,Rainwise IP-100,2013-03-09 00:46:00,
2013-03-08 16:51:00,49.4,43.0,29.68,SW,225,8.4,26.1,81,0.00,,,0.01,Rainwise IP-100,2013-03-09 00:51:00,
2013-03-08 16:56:00,49.1,44.0,29.68,WSW,247,6.3,18.7,82,0.00,,,0.01,Rainwise IP-100,2013-03-09 00:56:00,
2013-03-08 17:01:00,49.0,44.0,29.68,SSW,202,4.0,20.1,82,0.00,,,0.01,Rainwise IP-100,2013-03-09 01:01:00,
2013-03-08 17:06:00,49.0,43.0,29.68,West,270,8.6,22.4,81,0.00,,,0.01,Rainwise IP-100,2013-03-09 01:06:00,
2013-03-08 17:11:00,48.8,43.0,29.68,SW,225,14.9,22.2,81,0.00,,,0.01,Rainwise IP-100,2013-03-09 01:11:00,
2013-03-08 17:16:00,48.6,44.0,29.69,South,180,12.1,24.7,82,0.00,,,0.01,Rainwise IP-100,2013-03-09 01:16:00,
2013-03-08 17:21:00,48.6,44.0,29.69,SSW,202,6.5,19.6,82,0.00,,,0.01,Rainwise IP-100,2013-03-09 01:21:00,
2013-03-08 17:26:00,48.7,44.0,29.69,SW,225,5.1,18.9,82,0.00,,,0.01,Rainwise IP-100,2013-03-09 01:26:00,
2013-03-08 17:31:00,48.7,44.0,29.69,West,270,9.1,25.9,82,0.00,,,0.01,Rainwise IP-100,2013-03-09 01:31:00,
2013-03-08 17:36:00,48.7,44.0,29.69,WSW,247,11.7,18.9,82,0.00,,,0.01,Rainwise IP-100,2013-03-09 01:36:00,
2013-03-08 17:41:00,48.7,44.0,29.69,SW,225,4.2,20.3,82,0.00,,,0.01,Rainwise IP-100,2013-03-09 01:41:00,
2013-03-08 17:46:00,48.7,44.0,29.69,WSW,247,6.5,14.2,83,0.00,,,0.01,Rainwise IP-100,2013-03-09 01:46:00,
2013-03-08 17:51:00,48.5,44.0,29.69,West,270,12.8,15.4,83,0.00,,,0.01,Rainwise IP-100,2013-03-09 01:51:00,
2013-03-08 17:56:00,48.3,43.0,29.70,West,270,7.0,18.9,83,0.00,,,0.01,Rainwise IP-100,2013-03-09 01:56:00,
2013-03-08 18:01:00,48.2,44.0,29.70,WSW,247,9.3,19.1,84,0.00,,,0.01,Rainwise IP-100,2013-03-09 02:01:00,
2013-03-08 18:06:00,48.1,44.0,29.70,South,180,6.5,14.9,84,0.00,,,0.01,Rainwise IP-100,2013-03-09 02:06:00,
2013-03-08 18:11:00,48.0,44.0,29.70,SW,225,8.4,16.6,85,0.00,,,0.01,Rainwise IP-100,2013-03-09 02:11:00,
2013-03-08 18:16:00,47.9,44.0,29.70,SSW,202,13.8,14.7,85,0.00,,,0.01,Rainwise IP-100,2013-03-09 02:16:00,
2013-03-08 18:21:00,47.8,44.0,29.71,WSW,247,7.0,18.2,86,0.00,,,0.01,Rainwise IP-100,2013-03-09 02:21:00,
2013-03-08 18:26:00,47.8,44.0,29.71,SW,225,5.8,13.1,86,0.00,,,0.01,Rainwise IP-100,2013-03-09 02:26:00,
2013-03-08 18:31:00,47.7,43.0,29.71,SW,225,7.9,14.9,86,0.00,,,0.01,Rainwise IP-100,2013-03-09 02:31:00,
2013-03-08 18:36:00,47.7,43.0,29.72,WSW,247,8.4,15.9,86,0.00,,,0.01,Rainwise IP-100,2013-03-09 02:36:00,
2013-03-08 18:41:00,47.7,43.0,29.72,SSW,202,4.7,14.9,86,0.00,,,0.01,Rainwise IP-100,2013-03-09 02:41:00,
2013-03-08 18:46:00,47.7,43.0,29.72,SSW,202,12.1,13.5,86,0.00,,,0.01,Rainwise IP-100,2013-03-09 02:46:00,
2013-03-08 18:51:00,47.6,43.0,29.72,SW,225,8.6,17.3,85,0.00,,,0.01,Rainwise IP-100,2013-03-09 02:51:00,
2013-03-08 18:56:00,47.5,43.0,29.73,West,270,4.2,14.0,85,0.00,,,0.01,Rainwise IP-100,2013-03-09 02:56:00,
2013-03-08 19:01:00,47.5,43.0,29.72,SW,225,10.5,14.5,85,0.00,,,0.01,Rainwise IP-100,2013-03-09 03:01:00,
2013-03-08 19:06:00,47.5,43.0,29.73,SSW,202,4.4,16.8,85,0.00,,,0.01,Rainwise IP-100,2013-03-09 03:06:00,
2013-03-08 19:11:00,47.5,43.0,29.73,WSW,247,4.0,16.8,85,0.00,,,0.01,Rainwise IP-100,2013-03-09 03:11:00,
2013-03-08 19:16:00,47.4,43.0,29.73,NW,315,4.4,12.1,85,0.00,,,0.01,Rainwise IP-100,2013-03-09 03:16:00,
2013-03-08 19:21:00,47.3,43.0,29.74,WSW,247,5.1,13.3,85,0.00,,,0.01,Rainwise IP-100,2013-03-09 03:21:00,
2013-03-08 19:26:00,47.3,43.0,29.74,WSW,247,3.0,17.7,85,0.00,,,0.01,Rainwise IP-100,2013-03-09 03:26:00,
2013-03-08 19:31:00,47.4,43.0,29.74,WNW,292,3.0,12.1,85,0.00,,,0.01,Rainwise IP-100,2013-03-09 03:31:00,
2013-03-08 19:36:00,47.3,43.0,29.74,WNW,292,7.9,11.4,85,0.00,,,0.01,Rainwise IP-100,2013-03-09 03:36:00,
2013-03-08 19:41:00,47.4,43.0,29.75,West,270,4.2,12.8,85,0.00,,,0.01,Rainwise IP-100,2013-03-09 03:41:00,
2013-03-08 19:46:00,47.4,43.0,29.75,WSW,247,4.0,10.7,85,0.00,,,0.01,Rainwise IP-100,2013-03-09 03:46:00,
2013-03-08 19:51:00,47.4,43.0,29.75,WNW,292,5.4,11.4,85,0.00,,,0.01,Rainwise IP-100,2013-03-09 03:51:00,
2013-03-08 19:56:00,47.3,43.0,29.75,WSW,247,4.9,15.9,85,0.00,,,0.01,Rainwise IP-100,2013-03-09 03:56:00,
2013-03-08 20:01:00,47.3,43.0,29.76,WSW,247,3.5,9.8,85,0.00,,,0.01,Rainwise IP-100,2013-03-09 04:01:00,
2013-03-08 20:06:00,47.3,43.0,29.75,SSW,202,6.1,17.0,85,0.00,,,0.01,Rainwise IP-100,2013-03-09 04:06:00,
2013-03-08 20:11:00,47.3,43.0,29.75,SSW,202,3.3,14.5,85,0.00,,,0.01,Rainwise IP-100,2013-03-09 04:11:00,
2013-03-08 20:16:00,47.3,43.0,29.75,WSW,247,7.0,14.7,85,0.00,,,0.01,Rainwise IP-100,2013-03-09 04:16:00,
2013-03-08 20:21:00,47.2,42.0,29.76,SSE,157,3.5,14.0,85,0.00,,,0.01,Rainwise IP-100,2013-03-09 04:21:00,
2013-03-08 20:26:00,47.2,42.0,29.75,SW,225,1.2,10.5,85,0.00,,,0.01,Rainwise IP-100,2013-03-09 04:26:00,
2013-03-08 20:31:00,47.1,42.0,29.76,WNW,292,10.7,14.5,85,0.00,,,0.01,Rainwise IP-100,2013-03-09 04:31:00,
2013-03-08 20:36:00,47.2,42.0,29.76,West,270,7.2,12.8,85,0.00,,,0.01,Rainwise IP-100,2013-03-09 04:36:00,
2013-03-08 20:41:00,47.2,42.0,29.76,WSW,247,5.4,14.2,85,0.00,,,0.01,Rainwise IP-100,2013-03-09 04:41:00,
2013-03-08 20:46:00,47.2,42.0,29.77,SSW,202,3.7,16.1,85,0.00,,,0.01,Rainwise IP-100,2013-03-09 04:46:00,
2013-03-08 20:51:00,47.2,42.0,29.76,West,270,7.2,10.0,85,0.00,,,0.01,Rainwise IP-100,2013-03-09 04:51:00,
2013-03-08 20:56:00,47.2,42.0,29.77,SW,225,6.3,12.8,85,0.00,,,0.01,Rainwise IP-100,2013-03-09 04:56:00,
2013-03-08 21:00:00,47.2,42.0,29.77,WSW,247,6.3,12.8,85,0.00,,,0.01,Rainwise IP-100,2013-03-09 05:00:00,
2013-03-08 21:05:00,47.1,42.0,29.77,SW,225,6.8,11.2,85,0.00,,,0.01,Rainwise IP-100,2013-03-09 05:05:00,
2013-03-08 21:10:00,47.1,42.0,29.77,SSW,202,4.0,12.6,85,0.00,,,0.01,Rainwise IP-100,2013-03-09 05:10:00,
2013-03-08 21:15:00,47.0,42.0,29.78,SSW,202,3.7,9.8,85,0.00,,,0.01,Rainwise IP-100,2013-03-09 05:15:00,
2013-03-08 21:20:00,46.9,43.0,29.78,South,180,4.2,16.1,86,0.00,,,0.01,Rainwise IP-100,2013-03-09 05:20:00,
2013-03-08 21:25:00,47.0,43.0,29.78,SW,225,2.8,14.9,86,0.00,,,0.01,Rainwise IP-100,2013-03-09 05:25:00,
2013-03-08 21:28:00,47.0,43.0,29.78,WNW,292,4.4,15.4,86,0.00,,,0.01,Rainwise IP-100,2013-03-09 05:28:00,
2013-03-08 21:33:00,47.1,43.0,29.78,SW,225,6.5,18.0,86,0.00,,,0.01,Rainwise IP-100,2013-03-09 05:33:00,
2013-03-08 21:38:00,47.2,43.0,29.78,WSW,247,9.3,19.1,86,0.00,,,0.01,Rainwise IP-100,2013-03-09 05:38:00,
2013-03-08 21:43:00,47.2,43.0,29.78,WSW,247,5.6,17.5,87,0.00,,,0.01,Rainwise IP-100,2013-03-09 05:43:00,
2013-03-08 21:48:00,47.2,43.0,29.78,SSW,202,4.0,16.1,87,0.00,,,0.01,Rainwise IP-100,2013-03-09 05:48:00,
2013-03-08 21:53:00,47.2,43.0,29.79,West,270,7.0,13.5,87,0.00,,,0.01,Rainwise IP-100,2013-03-09 05:53:00,
2013-03-08 21:58:00,47.2,43.0,29.79,WSW,247,7.2,15.6,87,0.00,,,0.01,Rainwise IP-100,2013-03-09 05:58:00,
2013-03-08 22:03:00,47.2,43.0,29.79,West,270,8.9,14.5,87,0.00,,,0.01,Rainwise IP-100,2013-03-09 06:03:00,
2013-03-08 22:08:00,47.2,43.0,29.79,SW,225,10.7,19.6,87,0.00,,,0.01,Rainwise IP-100,2013-03-09 06:08:00,
2013-03-08 22:13:00,47.1,43.0,29.79,WSW,247,5.6,15.9,87,0.00,,,0.01,Rainwise IP-100,2013-03-09 06:13:00,
2013-03-08 22:18:00,47.1,43.0,29.78,SW,225,6.8,14.0,87,0.00,,,0.01,Rainwise IP-100,2013-03-09 06:18:00,
2013-03-08 22:23:00,47.0,43.0,29.78,SW,225,8.9,14.9,88,0.00,,,0.01,Rainwise IP-100,2013-03-09 06:23:00,
2013-03-08 22:28:00,47.0,43.0,29.78,WSW,247,7.2,20.3,88,0.00,,,0.01,Rainwise IP-100,2013-03-09 06:28:00,
2013-03-08 22:33:00,47.0,43.0,29.78,SSW,202,6.3,11.4,88,0.00,,,0.01,Rainwise IP-100,2013-03-09 06:33:00,
2013-03-08 22:38:00,46.9,43.0,29.78,West,270,6.5,11.7,88,0.00,,,0.01,Rainwise IP-100,2013-03-09 06:38:00,
2013-03-08 22:43:00,46.8,43.0,29.78,WSW,247,5.1,13.8,88,0.00,,,0.01,Rainwise IP-100,2013-03-09 06:43:00,
2013-03-08 22:48:00,46.7,43.0,29.78,WSW,247,5.8,13.1,88,0.00,,,0.01,Rainwise IP-100,2013-03-09 06:48:00,
2013-03-08 22:53:00,46.7,43.0,29.78,SW,225,3.3,10.5,88,0.00,,,0.01,Rainwise IP-100,2013-03-09 06:53:00,
2013-03-08 22:58:00,46.7,43.0,29.79,SW,225,1.9,13.1,88,0.00,,,0.01,Rainwise IP-100,2013-03-09 06:58:00,
2013-03-08 23:03:00,46.6,43.0,29.79,SSW,202,3.5,10.0,88,0.00,,,0.01,Rainwise IP-100,2013-03-09 07:03:00,
2013-03-08 23:08:00,46.6,43.0,29.79,SSW,202,8.9,9.8,88,0.00,,,0.01,Rainwise IP-100,2013-03-09 07:08:00,
2013-03-08 23:13:00,46.6,43.0,29.79,SW,225,6.3,10.7,89,0.00,,,0.01,Rainwise IP-100,2013-03-09 07:13:00,
2013-03-08 23:18:00,46.6,43.0,29.79,West,270,4.0,8.6,89,0.00,,,0.01,Rainwise IP-100,2013-03-09 07:18:00,
2013-03-08 23:23:00,46.5,43.0,29.79,SW,225,4.7,9.6,89,0.00,,,0.01,Rainwise IP-100,2013-03-09 07:23:00,
2013-03-08 23:28:00,46.4,43.0,29.79,WSW,247,3.5,9.3,89,0.00,,,0.01,Rainwise IP-100,2013-03-09 07:28:00,
2013-03-08 23:33:00,46.5,43.0,29.79,SSW,202,6.3,11.2,89,0.00,,,0.01,Rainwise IP-100,2013-03-09 07:33:00,
2013-03-08 23:38:00,46.5,43.0,29.79,WSW,247,1.9,8.2,89,0.00,,,0.01,Rainwise IP-100,2013-03-09 07:38:00,
2013-03-08 23:43:00,46.4,43.0,29.79,SW,225,4.7,8.2,89,0.00,,,0.01,Rainwise IP-100,2013-03-09 07:43:00,
2013-03-08 23:48:00,46.4,43.0,29.79,WSW,247,7.7,10.5,89,0.00,,,0.01,Rainwise IP-100,2013-03-09 07:48:00,
2013-03-08 23:53:00,46.4,43.0,29.79,WSW,247,1.2,7.7,89,0.00,,,0.01,Rainwise IP-100,2013-03-09 07:53:00,
2013-03-08 23:58:00,46.3,43.0,29.80,WSW,247,3.0,6.8,89,0.00,,,0.01,Rainwise IP-100,2013-03-09 07:58:00,